{"data":{"norad_id":48095,"epoch":"2026-09-19T19:56:37.944672Z","epoch_age_seconds":87728,"freshness":"FRESH","line1":"1 48095U 21027D   26262.83099473  .00000393  00000+0  24457-4 0  9999","line2":"2 48095  53.1623 341.9563 0002511  48.9776 311.1442 15.31694584302275","mean_motion":15.31694584,"eccentricity":0.0002511,"inclination_deg":53.1623,"raan_deg":341.9563,"arg_perigee_deg":48.9776,"mean_anomaly_deg":311.1442,"bstar":2.4457e-5,"rev_number":30227,"period_min":94.013520387299,"perigee_km":469.03638301992,"apogee_km":472.47589715487,"semimajor_km":6848.8931400874,"source":"CELESTRAK","updated_at":"2026-09-20T09:00:38.761240Z"}}